NIMBUS 2 DEB, 37889

Orbit data source: Space-Track

NIMBUS 2 DEB, 37889 is space debris in SSO originally from a launch on Sun, 15 May 1966 UTC launched from the Air Force Western Test Range (AFWTR). Debris objects in space refer to the collection of defunct objects orbiting the Earth. Examples of debris include non-operational satellites, rocket bodies, and fragments generated from explosions, collisions, or faulty payload assembly.

Loading next visibility...
Identifier
37889, 1966-040AU
Orbit
SSO
Country
Flag of USUS
Related business
Manufacturer
Unknown
Mission
Spacecraft
Bus & Motor
Unknown
Mass
Unknown
Launch date (UTC)
1966-05-15 (59 years ago)
Launch vehicle
Unknown
Launch site
Air Force Western Test Range (AFWTR)
Object type
Payload
Rocket body
Debris
Shape & HBR
Unknown shape, 0.1 m
Radar Cross Section
Small (<0.1 m²)

Expand to show TLE details & history
Last TLE update: 11 hours ago

TLE from 11 hours ago
0 NIMBUS 2 DEB
1 37889U 66040AU  25286.95952635  .00002728  00000-0  41917-2 0  9991
2 37889 100.5561 284.4317 0062893  48.4574 339.6144 13.51777109778849
Epoch: 2025-10-13T23:01Z
TLE epoch observation values (Epoch: 2025-10-13T23:01:43.076Z)
Latitude
27.34887°
Longitude
-89.25493°
Altitude
1,025.076 km
Speed
7.363 km/s
True Right ascension
18h 35m 43s
True Declination
27° 12' 50"
Sunlit
Object was in daylight at epoch
Visualization orbit readout
Latitude
Unknown
Longitude
Unknown
Altitude
Unknown
Speed
Unknown
Apparent Right ascension
Unknown
Apparent Declination
Unknown
Sunlit
N/A
Visualization observer readout
Local Sidereal Time
04:42:02
Azimuth
Unknown
Elevation
Unknown
Doppler factor
Unknown
Orbital elements
Apogee altitude
1,109.872 km
Perigee altitude
1,016.272 km
Semi-major axis
7,441.209 km
Eccentricity
0.00629
Inclination
100.5561°
RAAN
284.4317°
Arg. of periapsis
48.4574°
True anomaly
339.36149°
Mean anomaly
339.6144°
Eccentric anomaly
339.48813°
Mean motion
3.38125 °/min
Orbital period
106.47 mins
BSTAR
0.0041917
Loading maneuver chart data...
Computing Atmospheric mass density...
Loading historical data...
Loading historical data...
Loading historical data...
Loading historical data...
Loading historical data...
Loading historical data...
Loading historical data...

Documentation

Showing up to 5 results
|